sat.trackr.live / text

‹ back to catalog

ONEWEB-0061

NORAD 45428 · 2020-020E

PAYLOAD ACTIVE UNKNOWN

§ Identity

Operator
Country
UK
Launch date
2020-03-21
Launch site
TYMSC
Launch vehicle
Mass (kg)
RCS (m²)

Purposes: comms

External: N2YO · Heavens-Above · Gunter

§ Orbital elements

Epoch: 2026-09-12T07:11:18.780288Z

Period
109.81 min
Inclination
87.8968°
Eccentricity
0.0001810
Mean motion
13.11415313 rev/d
Perigee alt
1,216.3 km
Apogee alt
1,219.1 km
Semi-major
7,595.8 km
B*
1.4812e-3
RAAN
3.7399°
Arg perigee
100.1288°
Mean anomaly
260.0045°
Rev number
31,404

§ Raw data

ONEWEB-00611 45428U 20020E   26255.29952292  .00000538  00000+0  14812-2 0  99902 45428  87.8968   3.7399 0001810 100.1288 260.0045 13.11415313314044

JSON: /api/v1/satellites/45428 · /tle

For live sub-satellite position, see the globe view (requires WebGL).

§ Visibility from observer

Set your observer location to see the next 7 days of passes ≥ 10°. The values pass through the URL so the page stays shareable.

No JS? Fill the form by hand. The geolocation button needs JavaScript.